FW4288 Weather Reports


time (UTC)temp
C
wind
direction
speed
KPH
gust
KPH
rain 1hr
cm
rain 24hr
cm
rain mn
cm
humidity
%
barometer
mb
20260510150015 11 63 1.6 6.4 0.00 1.75 0.00 95 1013.3
20260510145515 11 355 0.0 3.2 0.00 1.75 0.00 97 1013.2
20260510145014 11 345 1.6 3.2 0.00 1.75 0.00 96 1013.3
20260510144515 11 345 1.6 4.8 0.00 1.75 0.00 96 1013.2
20260510144014 11 90 3.2 4.8 0.00 1.75 0.00 97 1013.1
20260510143515 11 67 3.2 8.0 0.00 1.75 0.00 98 1013.1
20260510143015 11 223 3.2 8.0 0.00 1.75 0.00 98 1013.2
20260510142514 11 201 1.6 6.4 0.00 1.75 0.00 99 1013.2
20260510142015 11 102 1.6 4.8 0.00 1.75 0.00 99 1013.3
20260510141515 11 171 1.6 4.8 0.00 1.75 0.00 100 1013.2
20260510140515 11 65 3.2 6.4 0.00 1.75 0.00 100 1013.2
20260510140015 11 84 1.6 6.4 0.00 1.85 0.00 100 1013.2
20260510135515 10 100 1.6 6.4 0.00 1.85 0.00 100 1013.2
20260510134515 9 291 1.6 4.8 0.00 1.85 0.00 100 1013.0
20260510133014 9 89 1.6 3.2 0.00 1.85 0.00 100 1013.2
20260510132515 8 89 1.6 3.2 0.00 1.85 0.00 100 1013.3
20260510132015 8 89 0.0 3.2 0.00 1.85 0.00 100 1013.3
20260510131515 8 181 0.0 3.2 0.00 1.85 0.00 100 1013.5
20260510130514 8 181 1.6 3.2 0.00 1.85 0.00 100 1013.3
20260510130015 8 181 1.6 3.2 0.00 2.03 0.00 100 1013.4
20260510125514 8 339 0.0 3.2 0.00 2.03 0.00 100 1013.4
20260510125015 8 341 1.6 3.2 0.00 2.03 0.00 100 1013.3
20260510124016 8 322 1.6 4.8 0.00 2.03 0.00 100 1013.2
20260510123516 8 145 1.6 4.8 0.00 2.03 0.00 100 1013.2
20260510122516 7 155 1.6 4.8 0.00 2.03 0.00 100 1013.2
20260510122016 7 56 1.6 4.8 0.00 2.03 0.00 100 1013.1
20260510121016 7 32 1.6 4.8 0.00 2.03 0.00 100 1013.1
20260510120016 7 138 1.6 4.8 0.00 2.03 0.00 100 1013.2
20260510115516 7 128 0.0 4.8 0.00 2.03 0.00 100 1013.1
20260510115016 7 101 0.0 4.8 0.00 2.03 0.00 100 1013.2
20260510114516 7 355 1.6 4.8 0.00 2.03 0.00 100 1013.1
20260510114016 7 69 1.6 3.2 0.00 2.03 0.00 100 1013.1
20260510113516 7 216 1.6 3.2 0.00 2.03 0.00 100 1013.1
20260510113016 7 216 1.6 3.2 0.00 2.03 0.00 100 1013.0
20260510112516 7 216 1.6 3.2 0.00 2.03 0.00 100 1013.2
20260510112016 7 216 1.6 6.4 0.00 2.03 0.00 100 1013.1
20260510111016 7 152 1.6 6.4 0.00 2.03 0.00 100 1013.0
20260510110017 7 207 0.0 3.2 0.00 2.03 0.00 100 1012.7
20260510105016 7 209 0.0 4.8 0.00 2.03 0.00 100 1012.6
20260510104516 7 140 0.0 1.6 0.00 2.03 0.00 100 1012.4
20260510104016 7 140 1.6 3.2 0.00 2.03 0.00 100 1012.5
20260510103516 7 140 1.6 8.0 0.00 2.03 0.00 100 1012.2
20260510103016 7 140 1.6 8.0 0.00 2.03 0.00 100 1012.2
20260510102516 7 285 0.0 3.2 0.00 2.03 0.00 100 1012.1
20260510102016 7 142 0.0 3.2 0.00 2.03 0.00 100 1012.3
20260510101516 7 126 1.6 4.8 0.00 2.03 0.00 100 1012.1
20260510101016 7 129 1.6 4.8 0.00 2.03 0.00 100 1012.0
20260510100517 7 53 0.0 3.2 0.00 2.03 0.00 100 1012.1
20260510100016 7 53 0.0 3.2 0.00 2.03 0.00 100 1011.9
20260510095516 7 70 0.0 3.2 0.00 2.03 0.00 100 1011.8
20260510095016 7 70 1.6 4.8 0.00 2.03 0.00 100 1011.8
20260510094516 7 70 1.6 4.8 0.00 2.03 0.00 100 1011.7
20260510094016 7 65 0.0 1.6 0.00 2.03 0.00 100 1011.5
20260510093517 7 65 0.0 4.8 0.00 2.03 0.00 100 1011.4
20260510093016 7 66 0.0 3.2 0.00 2.03 0.00 100 1011.3
20260510092516 7 66 0.0 4.8 0.00 2.03 0.00 100 1011.4
20260510092015 7 119 0.0 3.2 0.00 2.03 0.00 100 1011.4
20260510091516 7 119 0.0 3.2 0.00 2.03 0.00 100 1011.3
20260510091016 7 30 1.6 4.8 0.00 2.03 0.00 100 1011.2
20260510090516 7 22 0.0 4.8 0.00 2.03 0.00 100 1011.5
20260510090016 7 160 0.0 1.6 0.00 2.03 0.00 100 1011.5
20260510085016 7 160 0.0 1.6 0.00 2.03 0.00 100 1011.2
20260510084016 7 160 0.0 1.6 0.00 2.03 0.00 99 1011.4
20260510083516 7 160 0.0 3.2 0.00 2.03 0.00 99 1011.3
20260510082516 7 160 0.0 1.6 0.00 2.03 0.00 99 1011.5
20260510081516 7 160 0.0 3.2 0.00 2.03 0.00 99 1011.9
20260510081016 7 160 0.0 3.2 0.00 2.03 0.00 99 1011.8
20260510080516 7 160 0.0 3.2 0.00 2.03 0.00 99 1012.0
20260510080021 7 160 0.0 3.2 0.00 2.03 0.00 100 1012.0
20260510075515 7 160 0.0 3.2 0.00 2.03 0.00 99 1011.9
20260510075015 7 160 0.0 1.6 0.00 2.03 0.00 100 1012.0
20260510074516 7 160 0.0 3.2 0.00 2.03 0.00 99 1011.9
20260510074016 7 161 1.6 3.2 0.00 2.03 0.00 99 1011.9
20260510073516 7 161 0.0 3.2 0.00 2.03 0.00 100 1011.9
20260510072516 7 165 0.0 6.4 0.00 2.03 0.00 100 1012.1
20260510072016 7 26 0.0 3.2 0.00 2.03 0.00 99 1012.1
20260510071516 7 26 0.0 3.2 0.00 2.03 0.00 99 1012.0
20260510071016 7 26 1.6 3.2 0.00 2.03 0.00 99 1012.1
20260510070516 7 26 1.6 4.8 0.00 2.03 0.00 100 1011.9
20260510070016 7 136 1.6 4.8 0.00 2.03 0.00 99 1011.9
20260510065516 7 125 0.0 4.8 0.00 2.03 0.00 99 1011.8
20260510065016 7 174 0.0 4.8 0.00 2.03 0.00 99 1011.7
20260510063016 7 225 1.6 6.4 0.00 2.03 0.00 100 1011.5
20260510062516 7 88 1.6 6.4 0.00 2.03 0.00 99 1011.6
20260510062015 7 165 1.6 6.4 0.00 2.03 0.00 99 1011.6
20260510061516 7 17 1.6 6.4 0.00 2.03 0.00 99 1011.7
20260510061016 7 5 1.6 6.4 0.00 2.03 0.00 99 1011.8
20260510060016 7 238 0.0 6.4 0.00 2.03 0.00 99 1012.0
20260510055516 7 202 0.0 6.4 0.00 2.03 0.00 99 1012.1
20260510055016 6 59 0.0 3.2 0.00 2.03 0.00 99 1012.0
20260510054515 6 77 0.0 1.6 0.00 2.03 0.00 99 1012.0
20260510054015 6 77 0.0 3.2 0.00 2.03 0.00 99 1012.0
20260510053515 6 59 0.0 3.2 0.00 2.03 0.00 99 1012.0
20260510053016 6 71 0.0 4.8 0.00 2.03 0.00 99 1012.1
20260510052015 6 118 0.0 3.2 0.00 2.03 0.00 99 1012.1
20260510051516 6 118 0.0 3.2 0.00 2.03 0.00 99 1012.3
20260510051015 6 126 0.0 3.2 0.00 2.03 0.00 99 1012.4
20260510050515 6 126 0.0 3.2 0.00 2.03 0.00 99 1012.4
20260510050016 6 126 0.0 1.6 0.00 2.03 0.00 99 1012.4
20260510045515 6 126 0.0 4.8 0.00 2.03 0.00 99 1012.3
20260510045015 6 126 1.6 4.8 0.00 2.03 0.00 99 1012.4
20260510044516 6 66 0.0 3.2 0.00 2.03 0.00 99 1012.4
20260510043016 6 66 1.6 4.8 0.00 2.03 0.00 99 1012.3
20260510042515 6 66 1.6 4.8 0.00 2.03 0.00 99 1012.4
20260510042015 6 68 0.0 1.6 0.00 2.03 0.00 99 1012.4
20260510041516 6 360 0.0 4.8 0.00 2.03 0.00 99 1012.4
20260510041015 6 360 0.0 4.8 0.00 2.03 0.00 99 1012.4
20260510040515 6 360 0.0 1.6 0.00 2.03 0.00 99 1012.4
20260510040016 6 360 0.0 1.6 0.00 2.03 2.03 99 1012.3
20260510035016 6 360 0.0 1.6 0.00 2.03 2.03 99 1012.3
20260510034516 6 360 0.0 3.2 0.00 2.03 2.03 99 1012.4
20260510034015 6 360 0.0 1.6 0.00 2.03 2.03 99 1012.4
20260510033016 6 360 0.0 0.0 0.00 2.03 2.03 99 1012.6
20260510032516 6 360 0.0 1.6 0.00 2.03 2.03 99 1012.5
20260510032015 6 360 0.0 1.6 0.00 2.03 2.03 99 1012.4
20260510031516 6 360 0.0 1.6 0.00 2.03 2.03 99 1012.6
20260510031015 6 360 0.0 1.6 0.00 2.03 2.03 99 1012.5
20260510030515 6 360 0.0 1.6 0.00 2.03 2.03 99 1012.3
20260510030016 6 360 0.0 3.2 0.00 2.03 2.03 99 1012.3
20260510025515 6 360 0.0 3.2 0.00 2.03 2.03 99 1012.7
20260510025015 6 360 0.0 1.6 0.00 2.03 2.03 99 1012.5
20260510024516 6 360 0.0 1.6 0.00 2.03 2.03 99 1012.5
20260510024015 6 360 0.0 3.2 0.00 2.03 2.03 99 1012.6
20260510023515 6 360 0.0 3.2 0.00 2.03 2.03 99 1012.5
20260510023016 6 355 0.0 1.6 0.00 2.03 2.03 99 1012.7
20260510022515 6 355 0.0 1.6 0.00 2.03 2.03 99 1012.5
20260510021516 6 355 0.0 3.2 0.00 2.03 2.03 99 1012.4
20260510020515 6 355 0.0 1.6 0.00 2.03 2.03 99 1012.6
20260510015515 6 36 0.0 0.0 0.00 2.03 2.03 99 1012.8
20260510015015 6 36 0.0 0.0 0.00 2.03 2.03 99 1013.0
20260510013516 6 36 0.0 1.6 0.00 2.03 2.03 99 1012.8
20260510013016 6 36 0.0 1.6 0.00 2.03 2.03 99 1012.9
20260510012515 6 36 0.0 1.6 0.00 2.03 2.03 99 1012.8
20260510012015 6 36 0.0 3.2 0.00 2.03 2.03 99 1012.7
20260510011015 6 37 0.0 0.0 0.00 2.03 2.03 99 1012.5
20260510010515 6 37 0.0 0.0 0.00 2.03 2.03 99 1012.7
20260510005516 6 37 0.0 0.0 0.00 2.03 2.03 99 1012.5
20260510005015 6 37 0.0 0.0 0.00 2.03 2.03 99 1012.3
20260510004516 6 95 0.0 0.0 0.00 2.03 2.03 99 1012.4
20260510004015 6 95 0.0 0.0 0.00 2.03 2.03 99 1012.2
20260510003515 6 95 0.0 1.6 0.00 2.03 2.03 99 1012.2
20260510002515 6 95 0.0 1.6 0.00 2.03 2.03 99 1012.1
20260510002015 6 95 0.0 1.6 0.00 2.03 2.03 99 1012.0
20260510001515 6 95 0.0 1.6 0.00 2.03 2.03 99 1012.1
20260510001015 6 95 0.0 1.6 0.00 2.03 2.03 99 1012.0
20260510000515 7 95 0.0 3.2 0.00 2.03 2.03 99 1011.9
20260510000017 7 95 0.0 3.2 0.00 2.03 2.03 99 1012.0
20260509235515 7 95 0.0 3.2 0.00 2.03 2.03 99 1011.8
20260509235015 7 95 0.0 1.6 0.00 2.03 2.03 99 1011.7
20260509234515 7 95 0.0 1.6 0.00 2.03 2.03 99 1011.7
20260509234014 7 95 0.0 1.6 0.00 2.03 2.03 99 1011.7
20260509233514 7 95 0.0 1.6 0.00 2.03 2.03 99 1011.7
20260509233015 7 95 0.0 1.6 0.00 2.03 2.03 99 1011.6
20260509231515 7 95 0.0 1.6 0.00 2.03 2.03 99 1011.6
20260509231015 7 95 0.0 3.2 0.00 2.03 2.03 99 1011.6
20260509230514 7 94 0.0 3.2 0.00 2.03 2.03 99 1011.7
20260509230015 7 94 1.6 3.2 0.00 2.03 2.03 99 1011.7
20260509225515 7 94 0.0 3.2 0.00 2.03 2.03 99 1011.7
20260509225015 7 93 0.0 1.6 0.00 2.03 2.03 99 1011.6
20260509224515 7 93 0.0 1.6 0.00 2.03 2.03 99 1011.7
20260509224015 7 93 0.0 4.8 0.00 2.03 2.03 99 1011.6
20260509223514 7 93 0.0 4.8 0.00 2.03 2.03 99 1011.6
20260509223015 7 125 1.6 4.8 0.00 2.03 2.03 99 1011.7
20260509222514 7 170 1.6 4.8 0.00 2.03 2.03 99 1011.6
20260509222015 7 131 1.6 6.4 0.00 2.03 2.03 99 1011.7
20260509221515 6 131 1.6 6.4 0.00 2.03 2.03 99 1011.6
20260509221015 6 49 1.6 4.8 0.00 2.03 2.03 99 1011.6
20260509220514 6 36 1.6 4.8 0.03 2.03 2.03 99 1011.6
20260509220015 6 63 0.0 6.4 0.03 2.03 2.03 99 1011.6
20260509215515 6 63 0.0 6.4 0.03 2.03 2.03 99 1011.6
20260509215015 7 53 1.6 8.0 0.03 2.03 2.03 99 1011.7
20260509213515 6 48 1.6 4.8 0.08 2.03 2.03 99 1011.8
20260509213015 6 55 1.6 4.8 0.08 2.03 2.03 99 1011.9
20260509212515 6 55 1.6 4.8 0.10 2.03 2.03 99 1011.9
20260509211515 6 152 1.6 3.2 0.13 2.03 2.03 98 1012.0
20260509211015 6 152 1.6 6.4 0.13 2.03 2.03 99 1012.0
20260509210514 6 152 1.6 6.4 0.10 2.01 2.01 99 1012.1
20260509210015 5 43 1.6 3.2 0.13 2.01 2.01 98 1012.3
20260509205515 5 43 0.0 3.2 0.13 2.01 2.01 98 1012.4
20260509204014 5 43 0.0 3.2 0.15 1.98 1.98 98 1012.5
20260509203515 5 43 0.0 3.2 0.15 1.96 1.96 98 1012.6
20260509203015 5 43 0.0 1.6 0.20 1.96 1.96 98 1012.8
20260509202515 5 43 0.0 1.6 0.20 1.93 1.93 98 1012.7
20260509202015 5 43 0.0 0.0 0.20 1.93 1.93 98 1012.7
20260509201015 5 43 0.0 1.6 0.23 1.91 1.91 98 1012.8
20260509200514 5 43 0.0 3.2 0.23 1.91 1.91 98 1012.8
20260509200015 5 43 0.0 3.2 0.23 1.88 1.88 98 1012.7
20260509195515 5 43 1.6 3.2 0.23 1.88 1.88 98 1013.0
20260509194015 5 43 0.0 1.6 0.25 1.83 1.83 98 1012.8
20260509193514 5 43 0.0 1.6 0.25 1.80 1.80 98 1012.8
20260509192515 5 43 0.0 3.2 0.23 1.73 1.73 98 1012.8
20260509192015 5 43 1.6 3.2 0.25 1.73 1.73 98 1012.8
20260509191014 5 43 0.0 3.2 0.25 1.68 1.68 98 1012.8
20260509190015 4 43 1.6 3.2 0.30 1.65 1.65 98 1013.0
20260509185515 4 43 0.0 4.8 0.33 1.65 1.65 98 1013.1
20260509185015 4 43 0.0 4.8 0.33 1.63 1.63 98 1013.1
20260509184515 4 43 0.0 1.6 0.33 1.60 1.60 98 1013.1
20260509184015 4 43 1.6 3.2 0.30 1.57 1.57 98 1013.1
20260509183015 4 43 1.6 3.2 0.30 1.52 1.52 98 1013.3
20260509182015 5 43 1.6 3.2 0.30 1.47 1.47 98 1013.4
20260509181514 4 43 1.6 3.2 0.28 1.45 1.45 98 1013.4
20260509180015 5 43 0.0 3.2 0.25 1.35 1.35 98 1013.4
20260509175515 5 43 0.0 3.2 0.23 1.32 1.32 98 1013.4
20260509174515 5 43 0.0 3.2 0.20 1.27 1.27 98 1013.5
20260509174014 5 43 0.0 3.2 0.23 1.27 1.27 98 1013.4
20260509173514 4 43 1.6 1.6 0.20 1.24 1.24 98 1013.5
20260509173015 4 43 1.6 3.2 0.20 1.22 1.22 97 1013.5
20260509172514 5 43 0.0 3.2 0.20 1.19 1.19 98 1013.6
20260509172014 5 43 0.0 0.0 0.20 1.17 1.17 98 1013.6
20260509171014 5 43 0.0 0.0 0.23 1.14 1.14 98 1013.7
20260509170514 5 43 0.0 1.6 0.23 1.12 1.12 98 1013.8
20260509165514 4 43 0.0 3.2 0.23 1.09 1.09 97 1013.8
20260509165014 4 43 0.0 1.6 0.23 1.07 1.07 98 1013.8
20260509164515 4 43 0.0 1.6 0.25 1.07 1.07 98 1013.9
20260509164015 4 43 0.0 3.2 0.28 1.04 1.04 98 1013.9
20260509163514 4 43 0.0 3.2 0.30 1.04 1.04 97 1013.9
20260509162514 4 43 0.0 3.2 0.30 0.99 0.99 97 1014.0
20260509162014 4 43 1.6 3.2 0.30 0.97 0.97 97 1014.0
20260509161515 4 43 0.0 1.6 0.30 0.94 0.94 98 1014.1
20260509161014 3 43 1.6 3.2 0.30 0.91 0.91 97 1014.1
20260509160514 3 43 1.6 3.2 0.30 0.89 0.89 97 1014.1
20260509160015 3 43 0.0 3.2 0.33 0.89 0.89 97 1014.2
20260509155515 3 44 0.0 3.2 0.33 0.86 0.86 97 1014.2
20260509155014 3 44 0.0 1.6 0.33 0.84 0.84 97 1014.4
20260509154014 3 44 0.0 1.6 0.30 0.76 0.76 97 1014.5
20260509153514 3 44 0.0 1.6 0.30 0.74 0.74 97 1014.6
20260509153014 3 44 0.0 3.2 0.33 0.71 0.71 97 1014.6
20260509152514 3 44 0.0 3.2 0.33 0.69 0.69 97 1014.7
20260509152014 3 44 0.0 4.8 0.33 0.66 0.66 97 1014.7
20260509151514 3 360 1.6 4.8 0.33 0.64 0.64 97 1014.6
20260509151014 3 76 1.6 3.2 0.30 0.61 0.61 97 1014.7
20260509150514 3 76 0.0 3.2 0.30 0.58 0.58 97 1014.8